QPF
0.00 0.00 0.00 0.00 0.00 0.00 0.00 0.00 0.00 0.00 0.00 0.00 0.00 0.00 0.00 0.00 0.00 0.00 0.00 0.00 0.00 0.00 0.00 0.00 0.00 0.00 0.00 0.00 0.00 0.00 0.00 0.00 0.00 0.00 0.00 0.00 0.00 0.00 0.00 0.00 0.00 0.00 0.00 0.00 0.00 0.00 0.00 0.00 0.00 0.00 0.00 0.00 0.00 0.00
0.00 0.00 0.00 0.00 0.00 0.00 0.00 0.00 0.00 0.00 0.00 0.00 0.00 0.00 0.00 0.00 0.00 0.00 0.00 0.00 0.00 0.00 0.00 0.00 0.00 0.00 0.00 0.00 0.00 0.00 0.00 0.00 0.00 0.00 0.00 0.00 0.00 0.00 0.00 0.00 0.00 0.00 0.00 0.00 0.00 0.00 0.00 0.00 0.00 0.00 0.00 0.00 0.00 0.00
0.00 0.00 0.00 0.00 0.00 0.00 0.00 0.00 0.00 0.00 0.00 0.00 0.00 0.00 0.00 0.00 0.00 0.00 0.00 0.00 0.00 0.00 0.00 0.00 0.00 0.00 0.00 0.00 0.00 0.00 0.00 0.00 0.00 0.00 0.00 0.00 0.00 0.00 0.00 0.00 0.00 0.00 0.00 0.00 0.00 0.00 0.00 0.00 0.00 0.00 0.00 0.00 0.00 0.00
0.00 0.00 0.00 0.00 0.00 0.00 0.00 0.00 0.00 0.00 0.00 0.00 0.00 0.00 0.00 0.00 0.00 0.00 0.00 0.00 0.00 0.00 0.00 0.00 0.00 0.00 0.00 0.00 0.00 0.00 0.00 0.00 0.00 0.00 0.00 0.00 0.00 0.00 0.00 0.00 0.00 0.00 0.00 0.00 0.00 0.00 0.00 0.00 0.00 0.00 0.00 0.00 0.00 0.00
0.01 0.01 0.01 0.00 0.00 0.00 0.00 0.00 0.00 0.00 0.00 0.00 0.00 0.00 0.00 0.00 0.00 0.00 0.00 0.00 0.00 0.00 0.00 0.00 0.00 0.00 0.00 0.00 0.00 0.00 0.00 0.00 0.00 0.00 0.00 0.00 0.00 0.00 0.00 0.00 0.00 0.00 0.00 0.00 0.00 0.00 0.00 0.00 0.00 0.00 0.00 0.00 0.00 0.00
0.01 0.02 0.01 0.01 0.01 0.00 0.00 0.00 0.00 0.00 0.00 0.00 0.00 0.00 0.00 0.00 0.00 0.00 0.00 0.00 0.00 0.00 0.00 0.00 0.00 0.00 0.00 0.00 0.00 0.00 0.00 0.00 0.00 0.00 0.00 0.00 0.00 0.00 0.00 0.00 0.00 0.00 0.00 0.00 0.00 0.00 0.00 0.00 0.00 0.00 0.00 0.00 0.00 0.00
0.01 0.02 0.02 0.01 0.01 0.00 0.00 0.00 0.00 0.00 0.00 0.00 0.00 0.00 0.00 0.00 0.00 0.00 0.00 0.00 0.00 0.00 0.00 0.00 0.00 0.00 0.00 0.00 0.00 0.00 0.00 0.00 0.00 0.00 0.00 0.00 0.00 0.00 0.00 0.00 0.00 0.00 0.00 0.00 0.00 0.00 0.00 0.00 0.00 0.00 0.00 0.00 0.00 0.00
0.05 0.06 0.01 0.01 0.01 0.00 0.00 0.00 0.01 0.01 0.00 0.00 0.00 0.00 0.00 0.00 0.00 0.00 0.00 0.00 0.00 0.00 0.00 0.00 0.00 0.00 0.00 0.00 0.00 0.00 0.00 0.00 0.00 0.00 0.00 0.00 0.00 0.00 0.00 0.00 0.00 0.00 0.00 0.00 0.00 0.00 0.00 0.00 0.00 0.00 0.00 0.00 0.00 0.00
0.06 0.03 0.00 0.00 0.00 0.00 0.01 0.01 0.01 0.02 0.01 0.00 0.00 0.00 0.00 0.00 0.00 0.00 0.00 0.00 0.00 0.00 0.00 0.00 0.00 0.00 0.00 0.00 0.00 0.00 0.00 0.00 0.00 0.00 0.00 0.00 0.00 0.00 0.00 0.00 0.00 0.00 0.00 0.00 0.00 0.00 0.00 0.00 0.00 0.00 0.00 0.00 0.00 0.00
0.00 0.00 0.00 0.01 0.01 0.01 0.02 0.01 0.01 0.03 0.02 0.01 0.00 0.00 0.00 0.00 0.00 0.00 0.00 0.00 0.00 0.00 0.00 0.00 0.00 0.00 0.01 0.00 0.00 0.00 0.00 0.00 0.00 0.00 0.00 0.00 0.00 0.00 0.00 0.00 0.00 0.00 0.00 0.00 0.00 0.00 0.00 0.00 0.00 0.00 0.00 0.00 0.00 0.00
0.00 0.00 0.00 0.02 0.01 0.01 0.02 0.01 0.01 0.02 0.01 0.00 0.00 0.00 0.00 0.01 0.00 0.00 0.00 0.00 0.00 0.00 0.00 0.00 0.00 0.00 0.00 0.00 0.00 0.00 0.00 0.00 0.00 0.00 0.00 0.00 0.00 0.00 0.00 0.00 0.00 0.00 0.00 0.00 0.00 0.00 0.00 0.00 0.00 0.00 0.00 0.00 0.00 0.00
0.01 0.00 0.01 0.01 0.01 0.01 0.01 0.01 0.00 0.00 0.00 0.00 0.00 0.00 0.00 0.00 0.00 0.00 0.00 0.00 0.00 0.00 0.00 0.00 0.00 0.00 0.00 0.00 0.00 0.00 0.00 0.00 0.00 0.00 0.00 0.00 0.00 0.00 0.00 0.00 0.00 0.00 0.00 0.00 0.00 0.00 0.00 0.00 0.00 0.00 0.00 0.00 0.01 0.00
0.03 0.01 0.00 0.00 0.01 0.00 0.00 0.00 0.01 0.00 0.00 0.00 0.00 0.00 0.00 0.00 0.00 0.00 0.00 0.00 0.00 0.00 0.02 0.01 0.00 0.01 0.00 0.00 0.00 0.00 0.00 0.00 0.00 0.00 0.00 0.00 0.00 0.01 0.00 0.00 0.00 0.00 0.00 0.00 0.00 0.00 0.00 0.00 0.00 0.02 0.02 0.00 0.00 0.00
0.01 0.00 0.00 0.00 0.00 0.00 0.00 0.00 0.00 0.00 0.00 0.00 0.00 0.00 0.00 0.00 0.00 0.00 0.00 0.00 0.00 0.01 0.02 0.01 0.00 0.00 0.00 0.00 0.00 0.00 0.00 0.00 0.00 0.00 0.00 0.01 0.00 0.00 0.00 0.00 0.00 0.00 0.00 0.00 0.00 0.00 0.00 0.00 0.00 0.00 0.00 0.00 0.00 0.00
0.00 0.01 0.01 0.00 0.00 0.00 0.00 0.00 0.00 0.00 0.00 0.00 0.00 0.00 0.00 0.00 0.00 0.00 0.00 0.01 0.03 0.01 0.00 0.00 0.00 0.00 0.00 0.00 0.00 0.00 0.00 0.00 0.00 0.00 0.02 0.00 0.00 0.00 0.00 0.00 0.00 0.00 0.00 0.00 0.00 0.00 0.00 0.00 0.00 0.00 0.00 0.00 0.00 0.00
0.00 0.00 0.00 0.01 0.01 0.00 0.00 0.00 0.00 0.00 0.00 0.01 0.00 0.00 0.00 0.00 0.00 0.00 0.00 0.00 0.00 0.00 0.00 0.00 0.00 0.00 0.00 0.00 0.00 0.00 0.00 0.00 0.01 0.01 0.00 0.00 0.00 0.00 0.00 0.00 0.00 0.00 0.00 0.00 0.00 0.00 0.00 0.00 0.00 0.00 0.00 0.00 0.00 0.00
0.00 0.00 0.01 0.01 0.02 0.01 0.00 0.00 0.00 0.00 0.00 0.00 0.00 0.00 0.00 0.00 0.00 0.00 0.00 0.00 0.00 0.00 0.00 0.00 0.00 0.00 0.01 0.01 0.00 0.00 0.00 0.00 0.00 0.00 0.00 0.00 0.00 0.00 0.00 0.00 0.00 0.00 0.00 0.00 0.00 0.00 0.00 0.00 0.00 0.00 0.00 0.00 0.00 0.00
0.01 0.01 0.01 0.00 0.00 0.00 0.00 0.00 0.00 0.00 0.00 0.00 0.00 0.00 0.00 0.00 0.00 0.00 0.00 0.00 0.00 0.00 0.00 0.00 0.00 0.00 0.01 0.02 0.02 0.02 0.01 0.00 0.00 0.00 0.00 0.00 0.00 0.00 0.00 0.00 0.00 0.00 0.00 0.00 0.00 0.00 0.00 0.00 0.00 0.00 0.00 0.00 0.00 0.00
0.00 0.00 0.01 0.00 0.00 0.00 0.00 0.00 0.00 0.00 0.00 0.00 0.00 0.00 0.00 0.00 0.00 0.00 0.00 0.00 0.00 0.01 0.00 0.00 0.00 0.00 0.00 0.00 0.00 0.01 0.00 0.01 0.01 0.00 0.00 0.00 0.00 0.00 0.00 0.00 0.00 0.00 0.00 0.00 0.00 0.00 0.00 0.00 0.00 0.00 0.00 0.00 0.00 0.00
0.00 0.00 0.00 0.00 0.00 0.00 0.00 0.00 0.00 0.00 0.00 0.00 0.00 0.00 0.00 0.00 0.00 0.00 0.00 0.00 0.00 0.00 0.00 0.00 0.00 0.00 0.00 0.00 0.00 0.00 0.00 0.00 0.01 0.00 0.00 0.00 0.00 0.00 0.00 0.00 0.00 0.00 0.00 0.00 0.00 0.00 0.00 0.00 0.00 0.00 0.00 0.00 0.00 0.00
0.00 0.00 0.01 0.01 0.00 0.00 0.00 0.00 0.00 0.00 0.00 0.00 0.00 0.00 0.00 0.00 0.00 0.00 0.00 0.00 0.00 0.00 0.00 0.00 0.00 0.00 0.00 0.00 0.00 0.00 0.01 0.01 0.01 0.00 0.00 0.00 0.00 0.00 0.00 0.00 0.00 0.00 0.00 0.00 0.00 0.00 0.00 0.00 0.00 0.00 0.00 0.00 0.00 0.00
0.00 0.00 0.00 0.00 0.00 0.00 0.00 0.00 0.00 0.00 0.00 0.00 0.01 0.01 0.00 0.01 0.01 0.01 0.01 0.00 0.00 0.00 0.00 0.00 0.00 0.00 0.00 0.00 0.01 0.01 0.00 0.00 0.00 0.00 0.00 0.00 0.00 0.00 0.00 0.00 0.00 0.00 0.00 0.00 0.00 0.00 0.00 0.00 0.00 0.00 0.00 0.00 0.00 0.00
0.00 0.01 0.00 0.00 0.00 0.00 0.00 0.00 0.00 0.00 0.00 0.00 0.00 0.01 0.00 0.01 0.02 0.01 0.00 0.00 0.00 0.00 0.00 0.00 0.00 0.00 0.00 0.00 0.00 0.00 0.00 0.00 0.00 0.00 0.00 0.00 0.00 0.00 0.00 0.00 0.00 0.00 0.00 0.00 0.00 0.00 0.00 0.00 0.00 0.00 0.00 0.00 0.00 0.00
0.00 0.00 0.00 0.00 0.00 0.00 0.00 0.00 0.00 0.00 0.00 0.00 0.00 0.00 0.00 0.00 0.00 0.00 0.00 0.00 0.00 0.00 0.00 0.00 0.00 0.00 0.00 0.00 0.00 0.00 0.00 0.00 0.00 0.00 0.00 0.00 0.00 0.00 0.00 0.00 0.00 0.00 0.00 0.00 0.00 0.00 0.00 0.00 0.00 0.00 0.00 0.00 0.00 0.00
0.00 0.00 0.00 0.00 0.00 0.00 0.00 0.00 0.00 0.00 0.00 0.00 0.00 0.00 0.00 0.00 0.00 0.00 0.00 0.00 0.00 0.00 0.00 0.00 0.00 0.00 0.00 0.00 0.00 0.00 0.00 0.00 0.00 0.00 0.00 0.00 0.00 0.00 0.00 0.00 0.00 0.00 0.00 0.00 0.00 0.00 0.00 0.00 0.00 0.00 0.00 0.00 0.00 0.00
0.00 0.00 0.00 0.00 0.00 0.00 0.01 0.00 0.00 0.00 0.00 0.00 0.00 0.00 0.00 0.00 0.00 0.00 0.00 0.00 0.00 0.00 0.00 0.00 0.00 0.00 0.00 0.00 0.00 0.00 0.00 0.00 0.00 0.00 0.00 0.00 0.00 0.00 0.00 0.00 0.00 0.00 0.00 0.00 0.00 0.00 0.00 0.00 0.00 0.00 0.00 0.00 0.00 0.00
0.00 0.00 0.00 0.00 0.00 0.00 0.00 0.00 0.00 0.01 0.00 0.00 0.00 0.00 0.00 0.00 0.00 0.00 0.01 0.00 0.00 0.00 0.00 0.00 0.00 0.00 0.00 0.00 0.00 0.00 0.00 0.00 0.00 0.00 0.00 0.00 0.00 0.00 0.00 0.00 0.00 0.00 0.00 0.00 0.00 0.00 0.00 0.00 0.00 0.00 0.00 0.00 0.00 0.00
0.00 0.00 0.00 0.00 0.00 0.00 0.00 0.00 0.00 0.00 0.00 0.00 0.00 0.00 0.00 0.00 0.00 0.00 0.01 0.00 0.00 0.00 0.00 0.00 0.00 0.00 0.00 0.00 0.00 0.00 0.00 0.00 0.00 0.00 0.00 0.00 0.00 0.00 0.00 0.00 0.00 0.00 0.00 0.00 0.00 0.00 0.00 0.00 0.00 0.00 0.00 0.00 0.00 0.00
0.00 0.00 0.00 0.00 0.00 0.00 0.00 0.00 0.00 0.00 0.01 0.01 0.00 0.01 0.01 0.00 0.00 0.00 0.01 0.01 0.00 0.00 0.00 0.00 0.00 0.00 0.00 0.00 0.00 0.00 0.00 0.00 0.00 0.00 0.00 0.00 0.00 0.00 0.00 0.00 0.00 0.00 0.00 0.00 0.00 0.00 0.00 0.00 0.00 0.00 0.00 0.00 0.00 0.00
0.00 0.00 0.00 0.00 0.00 0.00 0.00 0.00 0.00 0.00 0.00 0.00 0.01 0.01 0.00 0.00 0.00 0.00 0.00 0.00 0.00 0.00 0.00 0.00 0.00 0.00 0.00 0.00 0.00 0.00 0.00 0.00 0.00 0.00 0.00 0.00 0.00 0.00 0.00 0.00 0.00 0.00 0.00 0.00 0.00 0.00 0.00 0.00 0.00 0.00 0.00 0.00 0.00 0.00
0.00 0.00 0.00 0.00 0.00 0.00 0.00 0.00 0.00 0.00 0.00 0.00 0.00 0.00 0.00 0.00 0.00 0.00 0.00 0.00 0.00 0.00 0.00 0.00 0.00 0.00 0.00 0.00 0.00 0.00 0.00 0.00 0.00 0.00 0.00 0.00 0.00 0.00 0.00 0.00 0.00 0.00 0.00 0.00 0.00 0.00 0.00 0.00 0.00 0.00 0.00 0.00 0.00 0.00
0.00 0.00 0.00 0.00 0.00 0.00 0.00 0.00 0.00 0.00 0.00 0.00 0.00 0.00 0.00 0.00 0.00 0.00 0.00 0.00 0.00 0.00 0.00 0.00 0.00 0.00 0.00 0.00 0.00 0.00 0.00 0.00 0.00 0.00 0.00 0.00 0.00 0.00 0.00 0.00 0.00 0.00 0.00 0.00 0.00 0.00 0.00 0.00 0.00 0.00 0.00 0.00 0.00 0.00
0.00 0.00 0.00 0.00 0.00 0.00 0.00 0.00 0.00 0.00 0.00 0.00 0.00 0.00 0.00 0.00 0.00 0.00 0.00 0.00 0.00 0.00 0.00 0.00 0.00 0.00 0.00 0.00 0.00 0.00 0.00 0.00 0.00 0.00 0.00 0.00 0.00 0.00 0.00 0.00 0.00 0.00 0.00 0.00 0.00 0.00 0.00 0.00 0.00 0.00 0.00 0.00 0.00 0.00
MSLP
1002.67 1002.65 1002.59 1002.47 1002.49 1002.45 1002.41 1002.53 1002.83 1003.03 1003.12 1003.00 1002.79 1002.62 1002.76 1002.79 1002.66 1002.50 1004.04 1003.99 1004.05 1005.96 1007.05 1006.85 1007.32 1007.76 1008.65 1009.12 1010.20 1010.88 1011.30 1012.02 1013.23 1014.52 1015.35 1015.36 1015.01 1014.15 1013.92 1013.65 1013.55 1014.30 1015.52 1016.34 1016.85 1016.92 1015.39 1013.03 1012.94 1013.31 1013.30 1013.25 1013.44 1013.73
1003.23 1003.30 1003.42 1003.53 1003.56 1003.50 1003.41 1003.46 1003.61 1003.77 1003.95 1003.94 1003.64 1003.32 1003.14 1003.17 1003.37 1003.72 1004.87 1004.45 1004.93 1006.37 1008.16 1007.77 1008.17 1008.27 1007.86 1008.00 1008.98 1010.31 1011.19 1011.88 1012.71 1013.73 1014.65 1014.94 1015.00 1014.58 1014.20 1014.11 1013.41 1013.82 1013.83 1014.77 1015.11 1014.17 1012.94 1012.40 1012.34 1012.32 1012.39 1012.59 1012.84 1013.24
1003.51 1003.70 1003.87 1004.11 1004.28 1004.45 1004.74 1004.88 1004.79 1004.57 1004.40 1004.41 1004.49 1004.47 1004.30 1004.39 1004.90 1004.95 1005.61 1005.75 1006.04 1007.82 1008.81 1008.58 1008.30 1008.14 1007.71 1008.35 1008.64 1010.00 1011.15 1011.79 1012.68 1013.10 1014.59 1015.34 1015.38 1015.24 1014.96 1014.41 1013.78 1013.34 1013.22 1013.87 1014.16 1013.32 1013.07 1012.57 1012.25 1012.15 1012.12 1012.21 1012.41 1012.93
1003.69 1003.80 1004.09 1004.40 1004.62 1004.79 1005.14 1005.50 1005.73 1005.84 1006.00 1006.03 1005.90 1005.92 1005.73 1005.83 1005.88 1005.80 1006.60 1006.91 1007.31 1008.48 1009.60 1009.74 1008.96 1009.04 1008.74 1008.75 1009.40 1009.60 1010.92 1011.84 1012.58 1013.54 1014.88 1015.86 1015.99 1015.23 1015.33 1014.88 1014.58 1013.76 1013.57 1013.62 1013.50 1013.17 1012.84 1012.39 1012.25 1012.06 1012.00 1012.09 1012.33 1012.76
1003.92 1004.17 1004.45 1004.69 1004.88 1005.20 1005.63 1006.02 1006.27 1006.48 1006.75 1007.06 1007.29 1007.43 1007.54 1007.38 1007.09 1006.66 1007.32 1007.93 1007.86 1008.82 1010.37 1010.69 1010.08 1009.29 1009.52 1009.89 1010.42 1010.95 1011.89 1012.87 1013.93 1014.98 1015.78 1016.37 1016.04 1016.14 1015.91 1015.49 1013.99 1013.65 1013.35 1013.60 1012.90 1012.93 1012.59 1012.33 1012.30 1012.22 1012.28 1012.24 1012.20 1012.40
1004.03 1004.25 1004.59 1004.90 1005.22 1005.56 1005.98 1006.37 1006.66 1006.89 1007.20 1007.50 1007.64 1007.75 1007.84 1007.46 1007.23 1007.72 1009.05 1009.26 1008.81 1008.65 1009.72 1011.57 1011.11 1010.51 1010.56 1010.67 1011.44 1012.26 1012.88 1013.93 1014.94 1015.89 1016.43 1016.20 1015.48 1015.87 1015.87 1014.48 1012.08 1012.79 1012.49 1012.04 1011.70 1012.18 1012.19 1011.81 1011.96 1011.90 1011.85 1011.73 1011.65 1011.78
1004.08 1004.28 1004.64 1005.07 1005.45 1005.78 1006.15 1006.48 1006.84 1007.18 1007.45 1007.72 1007.80 1007.74 1007.56 1007.21 1007.28 1008.62 1009.69 1009.67 1008.66 1008.90 1011.21 1012.67 1012.18 1011.12 1010.84 1011.35 1012.52 1012.98 1013.63 1014.42 1015.00 1015.92 1016.34 1016.18 1015.79 1015.53 1015.20 1013.14 1010.01 1011.26 1011.19 1011.06 1011.11 1011.67 1011.61 1011.38 1011.32 1011.19 1011.26 1011.22 1011.18 1011.24
1004.14 1004.38 1004.82 1005.24 1005.56 1005.91 1006.37 1006.73 1007.11 1007.51 1007.84 1008.07 1008.20 1008.20 1008.09 1008.13 1008.45 1009.24 1009.85 1009.44 1009.34 1010.52 1011.49 1012.57 1012.44 1011.91 1011.52 1012.76 1013.75 1014.18 1014.81 1015.34 1015.61 1016.10 1016.19 1016.11 1015.72 1014.98 1013.64 1010.52 1010.38 1010.34 1010.40 1010.40 1010.30 1010.42 1010.38 1010.43 1010.58 1010.55 1010.65 1010.84 1010.96 1011.08
1004.39 1004.80 1005.20 1005.55 1005.81 1006.15 1006.62 1007.05 1007.48 1007.97 1008.36 1008.63 1008.75 1008.73 1008.85 1009.32 1010.28 1010.80 1010.62 1010.41 1010.78 1011.82 1012.53 1013.03 1013.16 1013.35 1012.52 1013.37 1014.09 1014.66 1015.00 1015.88 1015.95 1015.90 1015.51 1015.09 1014.43 1013.33 1010.51 1010.02 1009.76 1009.73 1009.76 1009.39 1009.36 1009.64 1009.66 1009.79 1009.79 1010.07 1010.44 1010.67 1010.82 1010.72
1005.02 1005.30 1005.51 1005.73 1006.11 1006.40 1006.72 1007.18 1007.71 1008.29 1008.82 1009.21 1009.52 1009.93 1010.85 1011.18 1010.94 1011.01 1011.31 1011.84 1012.26 1013.04 1013.31 1013.45 1013.19 1013.06 1012.91 1013.55 1014.31 1015.01 1015.24 1015.26 1015.28 1014.48 1014.26 1013.95 1012.56 1010.44 1009.76 1009.23 1008.98 1008.90 1008.82 1008.89 1009.29 1009.26 1008.97 1009.11 1009.51 1009.67 1009.88 1009.77 1010.04 1010.04
1005.53 1005.62 1005.78 1005.81 1006.18 1006.37 1007.00 1007.56 1008.12 1008.83 1009.39 1010.21 1010.51 1011.22 1011.47 1011.35 1011.56 1011.81 1012.42 1012.69 1013.03 1013.40 1013.31 1013.06 1012.87 1012.79 1012.62 1013.03 1013.66 1014.18 1014.31 1014.36 1014.24 1013.68 1013.47 1012.81 1011.20 1009.52 1009.01 1008.65 1008.43 1008.25 1008.17 1008.09 1008.12 1008.15 1008.20 1008.01 1008.85 1008.98 1009.26 1009.48 1009.01 1009.21
1006.10 1005.98 1006.10 1006.46 1006.51 1006.92 1007.50 1008.21 1009.06 1009.43 1009.88 1009.84 1010.34 1011.23 1011.85 1011.99 1012.15 1012.42 1012.50 1012.65 1012.72 1012.43 1012.35 1012.22 1012.07 1012.20 1012.37 1012.40 1013.06 1013.62 1013.66 1013.76 1013.19 1012.78 1012.69 1011.54 1010.10 1009.65 1009.49 1009.33 1009.10 1008.90 1008.29 1007.28 1007.64 1007.94 1008.03 1007.81 1007.63 1008.01 1008.41 1009.02 1009.42 1009.68
1006.91 1007.19 1007.32 1007.66 1008.04 1008.23 1008.83 1009.24 1009.30 1009.42 1009.47 1010.01 1010.62 1011.32 1011.83 1012.40 1012.45 1012.53 1012.48 1012.16 1011.99 1011.66 1011.53 1011.53 1011.74 1011.98 1012.24 1012.62 1012.91 1013.16 1013.16 1012.84 1012.44 1012.42 1011.55 1010.50 1010.07 1010.02 1010.24 1010.08 1009.92 1009.80 1009.41 1008.95 1008.73 1008.61 1008.52 1008.50 1008.32 1008.51 1008.97 1009.48 1010.05 1010.74
1007.46 1007.82 1008.08 1008.36 1008.71 1009.11 1009.30 1009.46 1009.60 1009.80 1010.11 1010.97 1011.41 1011.96 1012.26 1012.45 1012.44 1012.13 1011.74 1011.54 1011.20 1011.17 1011.34 1011.44 1011.80 1012.02 1012.21 1012.53 1012.64 1012.97 1012.51 1012.40 1012.20 1011.67 1010.72 1010.32 1010.27 1010.44 1010.65 1010.80 1010.70 1010.65 1010.43 1010.18 1009.99 1009.84 1009.64 1009.41 1009.43 1009.79 1010.04 1010.40 1010.77 1011.61
1008.16 1008.52 1008.81 1009.11 1009.34 1009.65 1009.99 1010.16 1010.24 1010.60 1011.25 1011.39 1011.56 1011.95 1012.29 1011.96 1012.04 1011.80 1011.39 1011.21 1011.10 1011.03 1011.30 1011.75 1012.00 1011.96 1012.29 1012.47 1012.52 1012.62 1012.64 1012.16 1011.58 1011.07 1010.73 1010.44 1010.55 1010.62 1011.05 1011.20 1011.29 1011.24 1011.09 1011.02 1010.91 1010.78 1010.68 1010.66 1010.70 1010.86 1011.20 1011.50 1011.86 1012.26
1008.88 1009.18 1009.45 1009.63 1009.88 1010.20 1010.46 1010.61 1010.77 1011.28 1011.59 1011.65 1011.85 1012.03 1012.06 1012.24 1012.31 1011.96 1011.70 1011.42 1011.03 1011.39 1011.61 1011.79 1012.03 1012.24 1012.14 1012.01 1012.17 1012.01 1011.95 1011.51 1011.05 1010.84 1010.67 1010.58 1010.69 1010.96 1011.23 1011.56 1011.65 1011.65 1011.64 1011.58 1011.47 1011.45 1011.41 1011.49 1011.61 1011.82 1011.98 1012.27 1012.60 1012.82
1009.33 1009.82 1009.80 1009.98 1010.26 1010.59 1010.83 1011.16 1011.38 1011.66 1011.78 1011.76 1011.94 1011.89 1012.07 1012.28 1012.35 1012.03 1011.64 1011.39 1011.03 1011.36 1011.88 1011.94 1011.98 1011.66 1011.38 1011.36 1011.26 1011.04 1011.27 1010.86 1010.84 1010.97 1010.98 1010.71 1010.72 1010.88 1011.28 1011.68 1011.98 1011.95 1011.97 1011.92 1011.96 1011.97 1012.04 1012.10 1012.21 1012.45 1012.76 1013.05 1013.17 1013.50
1009.86 1009.83 1010.05 1010.34 1010.69 1011.11 1011.27 1011.54 1011.68 1011.69 1011.63 1011.46 1011.79 1012.01 1011.95 1011.84 1011.80 1011.69 1011.33 1010.94 1010.98 1011.14 1011.44 1011.44 1011.38 1011.39 1011.10 1010.64 1010.55 1010.53 1010.55 1010.89 1010.92 1010.92 1010.93 1010.92 1010.87 1011.01 1011.24 1011.51 1011.82 1011.94 1012.03 1012.12 1012.18 1012.28 1012.40 1012.50 1012.65 1012.95 1013.21 1013.42 1013.66 1013.99
1010.29 1010.26 1010.40 1010.63 1010.90 1011.23 1011.51 1011.69 1011.77 1011.68 1011.29 1011.04 1011.04 1011.08 1011.26 1011.25 1011.01 1010.84 1010.82 1010.74 1010.59 1010.62 1010.97 1011.31 1011.42 1011.23 1010.94 1010.95 1010.94 1010.80 1010.62 1010.92 1011.12 1011.16 1011.00 1011.05 1011.06 1011.09 1011.22 1011.44 1011.61 1011.67 1011.80 1011.92 1012.09 1012.34 1012.50 1012.56 1012.88 1013.21 1013.46 1013.65 1013.83 1014.06
1010.61 1010.70 1010.93 1011.10 1011.21 1011.67 1011.67 1011.57 1011.32 1011.38 1011.09 1010.55 1010.55 1010.72 1010.82 1010.79 1010.49 1010.51 1010.62 1010.66 1010.67 1010.85 1010.99 1011.08 1011.07 1010.74 1010.46 1010.63 1010.65 1010.63 1010.24 1010.24 1010.45 1010.76 1011.11 1011.38 1011.31 1011.32 1011.40 1011.52 1011.55 1011.61 1011.71 1011.84 1012.05 1012.25 1012.39 1012.62 1012.84 1013.09 1013.33 1013.58 1013.91 1014.18
1010.91 1011.10 1011.15 1011.34 1011.95 1012.10 1012.06 1011.64 1011.52 1011.12 1010.59 1010.51 1010.26 1010.41 1010.61 1010.45 1010.35 1010.49 1010.61 1010.56 1010.96 1010.80 1010.74 1010.47 1010.29 1010.08 1009.92 1009.74 1009.67 1009.98 1010.12 1010.13 1010.41 1010.60 1010.67 1010.99 1011.07 1011.23 1011.38 1011.33 1011.39 1011.54 1011.82 1011.98 1012.12 1012.24 1012.41 1012.55 1012.71 1012.87 1013.13 1013.40 1013.67 1014.02
1011.04 1011.05 1011.43 1011.85 1011.98 1012.17 1012.03 1011.40 1011.13 1010.73 1010.70 1010.26 1010.11 1010.07 1010.34 1010.43 1010.31 1010.22 1010.20 1010.53 1010.44 1009.96 1009.72 1009.57 1009.52 1009.52 1009.59 1009.39 1009.36 1009.67 1009.88 1009.96 1010.01 1010.24 1010.35 1010.56 1010.99 1011.24 1011.31 1011.07 1011.31 1011.63 1011.75 1011.82 1011.95 1012.17 1012.30 1012.38 1012.56 1012.86 1013.14 1013.39 1013.60 1013.94
1011.26 1011.17 1011.33 1011.71 1012.18 1012.09 1011.50 1010.80 1010.91 1010.51 1010.39 1009.99 1009.82 1009.98 1010.03 1009.85 1009.50 1009.48 1009.98 1009.94 1009.66 1008.94 1008.85 1008.89 1008.83 1008.90 1009.20 1009.42 1009.62 1009.87 1009.93 1009.92 1010.24 1010.34 1010.46 1010.59 1010.65 1010.78 1010.96 1011.03 1011.12 1011.28 1011.52 1011.59 1011.67 1011.87 1012.10 1012.17 1012.47 1012.81 1013.11 1013.43 1013.69 1013.99
1011.46 1011.51 1011.48 1011.60 1011.80 1011.73 1011.23 1010.95 1010.48 1010.28 1009.93 1009.91 1009.93 1009.91 1009.75 1009.58 1009.47 1009.61 1009.77 1009.51 1009.31 1009.01 1009.06 1009.20 1009.20 1009.50 1009.70 1009.87 1010.06 1010.12 1010.08 1010.15 1010.26 1010.37 1010.47 1010.58 1010.88 1010.84 1010.93 1011.11 1011.27 1011.15 1011.06 1011.20 1011.42 1011.66 1011.89 1012.17 1012.44 1012.76 1013.05 1013.32 1013.57 1013.87
1012.05 1012.08 1012.20 1011.91 1011.68 1011.92 1011.50 1011.13 1010.70 1010.38 1010.55 1010.11 1010.17 1010.09 1009.87 1009.68 1009.99 1010.19 1009.88 1009.74 1009.60 1009.86 1009.83 1009.73 1009.75 1009.76 1010.10 1010.25 1010.62 1010.62 1010.53 1010.50 1010.66 1010.94 1010.89 1010.75 1010.74 1010.96 1011.21 1011.38 1011.22 1011.17 1011.15 1011.31 1011.42 1011.54 1011.76 1011.96 1012.26 1012.54 1012.80 1013.08 1013.32 1013.60
1012.18 1012.26 1012.41 1012.21 1011.88 1011.82 1011.41 1011.29 1010.95 1010.58 1010.33 1010.42 1010.28 1009.99 1009.96 1010.40 1010.59 1010.39 1009.60 1009.53 1009.71 1010.04 1010.14 1009.96 1010.07 1010.33 1010.68 1010.76 1010.99 1011.12 1011.29 1010.99 1010.88 1011.15 1011.28 1011.16 1011.13 1011.29 1011.53 1011.60 1011.53 1011.32 1011.13 1011.05 1011.10 1011.17 1011.32 1011.61 1011.89 1012.19 1012.45 1012.65 1012.89 1013.26
1013.48 1013.73 1013.34 1013.25 1012.86 1012.22 1011.52 1011.12 1010.85 1010.75 1010.70 1010.64 1010.42 1010.52 1010.84 1011.26 1011.14 1010.22 1009.73 1009.58 1009.64 1009.85 1009.96 1009.96 1010.11 1010.54 1011.09 1011.44 1011.54 1011.57 1011.49 1011.36 1011.39 1011.37 1011.28 1011.29 1011.30 1011.27 1011.37 1011.55 1011.63 1011.47 1011.13 1011.00 1010.96 1010.85 1011.01 1011.21 1011.42 1011.63 1011.87 1012.15 1012.40 1012.66
1014.95 1014.92 1014.90 1014.39 1013.56 1012.74 1012.15 1011.78 1011.46 1011.19 1010.76 1010.27 1010.36 1010.89 1010.94 1010.99 1011.14 1010.87 1010.35 1010.21 1010.18 1010.29 1010.38 1010.68 1010.88 1011.11 1011.40 1011.52 1011.61 1011.68 1011.65 1011.53 1011.47 1011.55 1011.50 1011.70 1011.76 1011.76 1011.73 1011.67 1011.55 1011.37 1011.17 1010.95 1010.84 1010.82 1010.92 1011.01 1011.02 1011.11 1011.22 1011.41 1011.68 1012.00
1016.49 1016.14 1015.64 1014.90 1014.13 1013.32 1012.69 1012.58 1012.46 1011.86 1011.63 1010.76 1010.56 1010.69 1011.06 1011.62 1011.88 1011.40 1011.06 1010.86 1011.03 1010.71 1010.84 1011.22 1011.49 1011.45 1011.57 1011.70 1011.96 1012.12 1012.15 1012.04 1012.12 1012.23 1012.34 1012.44 1012.26 1012.17 1011.98 1011.90 1011.78 1011.50 1011.29 1011.07 1010.94 1010.84 1010.73 1010.71 1010.69 1010.69 1010.58 1010.67 1010.86 1011.15
1017.95 1017.48 1016.94 1016.11 1015.32 1014.11 1013.93 1013.80 1013.33 1012.63 1011.94 1011.20 1010.48 1011.24 1011.82 1012.34 1012.63 1012.16 1011.92 1011.88 1011.88 1011.42 1011.57 1011.76 1011.91 1012.01 1012.14 1012.35 1012.66 1013.01 1013.09 1013.01 1012.93 1012.96 1012.81 1012.74 1012.63 1012.36 1012.02 1011.91 1011.60 1011.40 1011.21 1011.05 1010.87 1010.67 1010.47 1010.41 1010.32 1010.27 1010.27 1010.18 1010.31 1010.54
1018.94 1018.21 1017.78 1017.10 1016.22 1015.02 1014.11 1013.48 1012.73 1012.03 1011.28 1010.63 1010.35 1010.79 1011.56 1012.59 1013.40 1013.85 1013.80 1013.52 1013.24 1012.79 1012.76 1012.85 1012.82 1012.83 1012.88 1013.09 1013.37 1013.60 1013.78 1013.70 1013.35 1013.18 1013.02 1012.81 1012.60 1012.36 1012.16 1011.85 1011.57 1011.31 1011.09 1010.80 1010.67 1010.50 1010.31 1010.18 1010.07 1009.95 1009.86 1009.84 1009.86 1009.94
1019.87 1019.31 1018.91 1018.42 1017.12 1015.33 1014.45 1014.07 1013.41 1012.47 1011.29 1010.72 1010.38 1010.72 1011.60 1012.46 1014.02 1015.34 1015.98 1015.27 1014.66 1014.41 1014.49 1014.24 1013.97 1014.04 1013.96 1013.95 1014.06 1014.13 1013.99 1013.84 1013.68 1013.43 1013.17 1012.92 1012.69 1012.48 1012.20 1011.86 1011.54 1011.28 1011.03 1010.70 1010.57 1010.45 1010.30 1010.07 1009.89 1009.77 1009.73 1009.77 1009.70 1009.75
1020.64 1019.73 1019.21 1018.96 1017.88 1016.82 1015.84 1015.27 1014.06 1012.80 1011.59 1010.81 1010.61 1010.85 1011.72 1013.08 1014.95 1016.36 1016.87 1016.85 1016.84 1016.58 1016.24 1015.76 1015.16 1014.75 1014.56 1014.51 1014.56 1014.41 1014.30 1014.18 1013.95 1013.71 1013.42 1013.11 1012.77 1012.41 1012.04 1011.69 1011.41 1011.20 1010.97 1010.74 1010.54 1010.37 1010.26 1010.17 1010.00 1009.78 1009.56 1009.49 1009.48 1009.49
Thickness
5345 5347 5351 5356 5360 5364 5366 5368 5370 5372 5375 5380 5386 5392 5396 5401 5407 5414 5407 5413 5418 5400 5405 5419 5422 5427 5424 5420 5412 5417 5419 5421 5410 5410 5406 5406 5411 5430 5433 5434 5437 5434 5421 5413 5394 5392 5395 5466 5463 5435 5431 5443 5446 5446
5338 5339 5339 5341 5344 5349 5353 5357 5359 5361 5363 5367 5374 5382 5389 5394 5398 5399 5396 5406 5408 5397 5390 5401 5403 5408 5418 5422 5415 5406 5405 5406 5401 5398 5395 5393 5403 5407 5421 5416 5435 5411 5422 5410 5414 5412 5437 5450 5444 5445 5437 5438 5437 5436
5333 5333 5334 5333 5333 5334 5334 5336 5341 5348 5354 5357 5359 5363 5368 5373 5372 5378 5378 5385 5388 5372 5371 5380 5389 5396 5404 5404 5404 5390 5394 5401 5398 5395 5379 5377 5394 5392 5394 5404 5418 5419 5424 5402 5411 5427 5424 5433 5433 5431 5431 5428 5429 5424
5328 5330 5330 5329 5330 5331 5329 5328 5330 5333 5335 5338 5343 5345 5351 5355 5359 5363 5360 5363 5365 5356 5349 5357 5375 5380 5387 5391 5392 5393 5391 5388 5388 5382 5360 5353 5365 5380 5370 5380 5380 5394 5401 5397 5390 5403 5406 5418 5415 5414 5414 5414 5413 5412
5322 5322 5322 5323 5325 5325 5324 5323 5323 5324 5325 5325 5326 5328 5332 5339 5345 5354 5353 5354 5359 5356 5338 5342 5358 5371 5372 5376 5376 5375 5373 5369 5362 5353 5346 5346 5356 5352 5340 5347 5367 5384 5380 5366 5385 5384 5391 5397 5401 5398 5395 5394 5396 5395
5317 5318 5318 5319 5320 5320 5320 5319 5319 5320 5320 5321 5323 5326 5329 5337 5344 5344 5330 5340 5348 5356 5338 5323 5346 5363 5364 5365 5363 5360 5358 5352 5344 5336 5330 5343 5357 5342 5326 5347 5399 5382 5376 5376 5384 5375 5372 5383 5380 5382 5382 5383 5386 5388
5309 5312 5313 5314 5316 5317 5318 5318 5318 5317 5318 5319 5323 5327 5333 5342 5347 5336 5333 5338 5350 5353 5329 5317 5325 5351 5359 5355 5342 5343 5345 5332 5337 5322 5323 5330 5334 5337 5321 5367 5403 5381 5376 5375 5374 5365 5363 5368 5366 5370 5370 5372 5378 5383
5299 5302 5305 5308 5312 5314 5315 5315 5315 5314 5314 5316 5318 5322 5329 5333 5334 5328 5330 5337 5342 5331 5326 5316 5328 5338 5348 5321 5329 5323 5321 5317 5319 5320 5319 5321 5329 5322 5335 5377 5377 5374 5372 5371 5370 5367 5366 5362 5354 5353 5351 5356 5364 5368
5291 5294 5298 5302 5307 5310 5311 5311 5311 5311 5311 5312 5315 5319 5321 5319 5312 5317 5321 5326 5327 5321 5313 5319 5319 5311 5331 5318 5325 5319 5317 5311 5313 5324 5322 5324 5328 5340 5368 5369 5367 5365 5363 5367 5367 5365 5363 5357 5353 5346 5343 5345 5355 5364
5284 5288 5294 5301 5304 5307 5310 5310 5310 5309 5308 5308 5310 5308 5295 5305 5311 5313 5310 5305 5306 5309 5305 5314 5314 5315 5326 5328 5313 5314 5313 5330 5317 5330 5328 5334 5342 5366 5371 5375 5372 5368 5365 5364 5359 5359 5362 5361 5356 5354 5354 5360 5362 5369
5283 5288 5294 5301 5304 5307 5307 5307 5306 5304 5304 5301 5299 5298 5302 5304 5304 5303 5301 5308 5300 5306 5303 5309 5314 5318 5325 5322 5322 5324 5327 5324 5334 5330 5336 5343 5357 5372 5379 5378 5375 5375 5375 5376 5377 5379 5376 5376 5367 5365 5365 5367 5376 5379
5285 5291 5295 5297 5301 5303 5303 5302 5299 5300 5300 5303 5302 5300 5298 5301 5303 5304 5304 5307 5309 5318 5314 5319 5319 5319 5325 5329 5321 5328 5331 5323 5341 5340 5345 5353 5362 5370 5370 5368 5364 5365 5370 5383 5383 5382 5380 5383 5383 5382 5379 5375 5368 5368
5284 5285 5288 5290 5290 5293 5292 5293 5296 5299 5302 5302 5301 5301 5303 5300 5304 5295 5282 5314 5301 5322 5329 5326 5323 5329 5327 5328 5322 5326 5329 5333 5335 5329 5351 5364 5367 5363 5359 5358 5357 5358 5361 5366 5368 5370 5371 5372 5373 5374 5370 5367 5362 5355
5283 5282 5282 5283 5284 5284 5288 5290 5294 5296 5297 5287 5298 5294 5296 5286 5292 5302 5309 5302 5319 5318 5322 5320 5321 5326 5320 5327 5326 5322 5333 5335 5325 5339 5364 5363 5359 5354 5351 5351 5352 5351 5353 5355 5357 5359 5360 5363 5364 5362 5362 5361 5356 5349
5280 5278 5277 5276 5277 5278 5280 5283 5286 5288 5289 5294 5299 5281 5291 5302 5294 5300 5306 5315 5322 5327 5319 5316 5317 5322 5322 5319 5321 5326 5320 5323 5344 5341 5357 5356 5354 5354 5345 5346 5345 5345 5346 5347 5349 5351 5352 5353 5353 5353 5351 5350 5348 5345
5275 5270 5264 5264 5267 5271 5274 5278 5281 5281 5283 5289 5288 5290 5292 5293 5286 5303 5314 5312 5321 5320 5310 5317 5322 5317 5331 5334 5331 5326 5344 5335 5344 5355 5353 5352 5350 5344 5343 5340 5340 5341 5341 5342 5344 5342 5343 5342 5342 5340 5340 5338 5337 5337
5274 5264 5257 5254 5264 5267 5270 5272 5275 5278 5282 5288 5281 5290 5289 5299 5301 5308 5317 5316 5320 5314 5303 5319 5322 5334 5330 5341 5347 5345 5329 5344 5344 5335 5334 5347 5348 5347 5339 5336 5334 5336 5336 5337 5335 5334 5333 5332 5332 5332 5330 5327 5327 5325
5274 5273 5269 5267 5267 5269 5271 5272 5276 5280 5290 5290 5287 5281 5297 5295 5298 5302 5308 5318 5325 5325 5322 5328 5323 5334 5333 5352 5354 5349 5346 5341 5336 5332 5331 5338 5347 5341 5338 5336 5333 5334 5333 5332 5330 5329 5327 5328 5328 5325 5323 5322 5320 5318
5274 5275 5274 5274 5273 5273 5272 5274 5277 5284 5289 5289 5293 5298 5301 5303 5307 5312 5312 5318 5325 5327 5322 5320 5327 5328 5324 5336 5336 5337 5340 5337 5333 5331 5328 5337 5340 5336 5335 5332 5331 5331 5330 5330 5328 5325 5324 5325 5320 5316 5315 5315 5314 5312
5272 5273 5273 5273 5274 5273 5271 5276 5284 5286 5292 5298 5299 5301 5305 5306 5310 5309 5312 5318 5322 5320 5324 5324 5323 5325 5324 5328 5329 5328 5339 5337 5337 5337 5333 5325 5327 5332 5330 5328 5327 5327 5325 5325 5323 5321 5319 5317 5316 5314 5312 5310 5307 5306
5270 5270 5272 5272 5269 5271 5275 5281 5280 5285 5297 5299 5302 5307 5304 5306 5309 5312 5313 5314 5311 5313 5315 5317 5313 5315 5327 5327 5328 5326 5328 5330 5329 5330 5334 5328 5328 5326 5325 5327 5327 5324 5322 5319 5317 5316 5314 5313 5311 5310 5308 5306 5304 5302
5268 5269 5268 5267 5270 5269 5273 5279 5287 5293 5294 5301 5303 5308 5303 5294 5296 5306 5314 5311 5314 5321 5319 5321 5322 5324 5327 5332 5331 5330 5328 5330 5331 5325 5325 5326 5324 5322 5323 5325 5324 5320 5319 5318 5316 5314 5311 5310 5308 5305 5302 5300 5299 5297
5264 5267 5268 5268 5266 5266 5273 5283 5287 5292 5295 5299 5303 5308 5305 5305 5314 5317 5313 5315 5316 5322 5324 5328 5332 5332 5327 5327 5326 5324 5324 5325 5324 5323 5322 5322 5323 5322 5320 5320 5321 5318 5317 5316 5315 5314 5311 5308 5305 5301 5298 5295 5294 5292
5257 5259 5262 5266 5267 5260 5272 5275 5287 5294 5297 5300 5302 5304 5309 5299 5307 5305 5312 5315 5313 5313 5317 5322 5320 5314 5314 5318 5315 5314 5316 5316 5315 5311 5313 5315 5316 5316 5316 5315 5313 5314 5317 5316 5313 5311 5308 5305 5302 5298 5295 5293 5290 5288
5247 5249 5250 5249 5264 5256 5261 5268 5275 5287 5274 5283 5291 5280 5289 5296 5285 5286 5304 5304 5302 5302 5304 5303 5306 5305 5301 5301 5302 5305 5305 5307 5308 5304 5303 5308 5306 5305 5307 5311 5308 5308 5307 5308 5308 5307 5304 5300 5299 5296 5294 5291 5288 5285
5241 5237 5234 5242 5245 5252 5260 5252 5255 5264 5271 5270 5274 5285 5279 5269 5268 5277 5301 5292 5303 5296 5279 5284 5295 5296 5292 5292 5292 5292 5290 5292 5296 5291 5293 5296 5298 5293 5294 5296 5298 5301 5300 5302 5303 5303 5301 5298 5296 5293 5290 5289 5286 5282
5216 5210 5226 5230 5233 5244 5252 5251 5267 5262 5260 5257 5260 5258 5255 5252 5247 5276 5280 5283 5283 5280 5283 5282 5284 5283 5280 5276 5275 5276 5276 5279 5281 5282 5283 5284 5284 5285 5283 5285 5282 5288 5290 5292 5293 5295 5294 5293 5291 5289 5288 5285 5282 5280
5202 5202 5181 5201 5211 5229 5232 5232 5233 5238 5247 5264 5262 5251 5252 5249 5259 5263 5268 5269 5269 5268 5269 5267 5266 5265 5264 5264 5265 5265 5266 5267 5269 5269 5270 5270 5270 5270 5271 5272 5273 5274 5276 5279 5280 5281 5281 5281 5282 5282 5282 5281 5279 5276
5173 5178 5188 5195 5204 5217 5222 5219 5222 5233 5235 5242 5229 5239 5246 5243 5238 5244 5250 5253 5253 5258 5257 5255 5253 5252 5251 5254 5254 5255 5255 5254 5251 5245 5240 5241 5250 5256 5258 5259 5261 5263 5264 5267 5268 5268 5270 5270 5271 5272 5275 5274 5274 5273
5154 5160 5165 5172 5183 5202 5197 5198 5203 5211 5219 5231 5236 5232 5229 5225 5222 5229 5234 5238 5241 5247 5244 5243 5243 5243 5242 5242 5242 5239 5237 5237 5238 5238 5237 5237 5243 5244 5247 5249 5252 5254 5255 5257 5259 5261 5262 5263 5264 5265 5266 5268 5269 5268
5139 5142 5146 5161 5154 5171 5182 5193 5198 5205 5213 5222 5229 5227 5223 5216 5209 5207 5210 5217 5222 5226 5227 5228 5229 5229 5230 5229 5226 5225 5221 5221 5224 5226 5227 5229 5231 5234 5235 5237 5241 5243 5246 5248 5250 5253 5255 5257 5259 5260 5261 5263 5263 5264
5101 5116 5127 5130 5140 5162 5172 5171 5178 5184 5201 5221 5228 5222 5216 5212 5200 5188 5185 5193 5200 5203 5204 5207 5211 5210 5211 5211 5210 5208 5209 5212 5213 5215 5217 5219 5221 5223 5225 5228 5231 5233 5235 5239 5240 5241 5245 5248 5251 5253 5254 5254 5255 5256
5092 5101 5114 5102 5120 5139 5148 5157 5169 5183 5199 5206 5214 5216 5206 5197 5185 5173 5169 5172 5173 5176 5179 5184 5191 5194 5196 5197 5197 5199 5200 5201 5203 5205 5207 5209 5212 5214 5217 5219 5221 5223 5225 5228 5231 5234 5235 5237 5240 5243 5245 5246 5247 5247